FW6797 Weather Reports


time (UTC)temp
C
wind
direction
speed
KPH
gust
KPH
rain 1hr
cm
rain 24hr
cm
rain mn
cm
humidity
%
barometer
mb
20260506155511 12 329 3.2 8.0 0.00 3.58 1.14 73 1011.2
20260506154012 11 323 0.0 4.8 0.00 3.58 1.14 76 1011.4
20260506152012 10 9 0.0 3.2 0.00 3.58 1.14 77 1010.8
20260506151008 10 360 0.0 6.4 0.00 3.58 1.14 78 1010.8
20260506150507 10 5 3.2 9.7 0.00 3.58 1.14 79 1010.8
20260506150018 10 323 1.6 9.7 0.00 3.58 1.14 79 1010.7
20260506145006 10 320 1.6 6.4 0.00 3.58 1.14 83 1010.4
20260506143513 9 273 1.6 4.8 0.00 3.58 1.14 82 1010.6
20260506141008 8 360 0.0 3.2 0.00 3.58 1.14 89 1010.3
20260506140512 8 5 0.0 3.2 0.00 3.58 1.14 88 1010.3
20260506140014 8 342 0.0 0.0 0.00 3.58 1.14 89 1010.5
20260506135509 8 343 0.0 0.0 0.00 3.58 1.14 90 1010.5
20260506135008 8 5 0.0 3.2 0.00 3.58 1.14 90 1010.4
20260506134010 7 352 0.0 3.2 0.00 3.58 1.14 91 1010.2
20260506133509 7 237 0.0 3.2 0.00 3.58 1.14 91 1010.3
20260506133024 7 333 0.0 4.8 0.00 3.58 1.14 91 1010.2
20260506132512 7 346 1.6 4.8 0.00 3.58 1.14 92 1010.1
20260506132015 7 5 0.0 3.2 0.00 3.58 1.14 93 1009.9
20260506131532 7 5 0.0 4.8 0.00 3.58 1.14 93 1010.0
20260506131010 7 5 1.6 4.8 0.00 3.58 1.14 93 1009.7
20260506130511 7 9 0.0 0.0 0.00 3.58 1.14 93 1009.6
20260506130026 7 345 0.0 0.0 0.00 3.58 1.14 93 1009.8
20260506125509 7 297 0.0 0.0 0.00 3.58 1.14 93 1009.7
20260506125011 7 298 0.0 0.0 0.00 3.58 1.14 94 1009.5
20260506124517 7 360 0.0 0.0 0.00 3.58 1.14 94 1009.4
20260506124011 7 311 0.0 0.0 0.00 3.58 1.14 95 1009.5
20260506123505 7 347 0.0 0.0 0.00 3.58 1.14 94 1009.3
20260506123024 7 313 0.0 3.2 0.00 3.58 1.14 94 1009.3
20260506122509 7 278 0.0 3.2 0.00 3.58 1.14 94 1009.1
20260506122007 7 278 0.0 3.2 0.00 3.58 1.14 95 1009.1
20260506121524 7 360 0.0 3.2 0.00 3.58 1.14 95 1009.0
20260506121012 7 360 0.0 3.2 0.00 3.58 1.14 95 1009.0
20260506120512 7 360 0.0 3.2 0.00 3.58 1.14 95 1009.0
20260506120036 7 360 0.0 3.2 0.00 3.58 1.14 95 1009.0
20260506115509 7 360 0.0 0.0 0.00 3.58 1.14 95 1009.1
20260506115011 7 360 0.0 0.0 0.00 3.58 1.14 95 1009.2
20260506114527 7 360 0.0 0.0 0.00 3.58 1.14 95 1009.0
20260506114010 7 360 0.0 0.0 0.00 3.58 1.14 95 1009.3
20260506113511 7 360 0.0 3.2 0.00 3.58 1.14 95 1009.2
20260506113028 7 360 0.0 3.2 0.00 3.58 1.14 95 1009.2
20260506112506 7 360 0.0 3.2 0.00 3.58 1.14 95 1008.9
20260506112010 7 44 0.0 3.2 0.00 3.58 1.14 95 1008.7
20260506111523 7 44 0.0 3.2 0.00 3.58 1.14 95 1008.4
20260506111002 7 352 0.0 1.6 0.00 3.58 1.14 95 1008.3
20260506110502 7 352 0.0 1.6 0.00 3.58 1.14 95 1008.4
20260506110003 7 325 0.0 0.0 0.00 3.58 1.14 95 1008.6
20260506105503 7 325 0.0 0.0 0.00 3.58 1.14 95 1008.7
20260506105004 7 325 0.0 3.2 0.00 3.58 1.14 95 1008.6
20260506104503 7 325 0.0 3.2 0.00 3.58 1.14 95 1008.3
20260506104005 7 5 0.0 0.0 0.00 3.58 1.14 95 1008.3
20260506103502 7 5 0.0 0.0 0.03 3.58 1.14 95 1008.3
20260506103005 7 5 0.0 0.0 0.03 3.58 1.14 95 1007.9
20260506102507 7 5 0.0 1.6 0.03 3.58 1.14 95 1007.2
20260506102004 7 5 0.0 1.6 0.05 3.58 1.14 95 1007.1
20260506101506 7 5 0.0 0.0 0.05 3.58 1.14 95 1007.3
20260506101002 7 5 0.0 0.0 0.05 3.58 1.14 95 1007.4
20260506100502 7 5 0.0 1.6 0.08 3.58 1.14 95 1007.3
20260506100004 7 5 0.0 3.2 0.08 3.58 1.14 95 1007.1
20260506095503 7 5 1.6 3.2 0.10 3.58 1.14 95 1006.9
20260506095004 7 25 0.0 6.4 0.13 3.58 1.14 95 1007.1
20260506094510 7 5 0.0 6.4 0.13 3.58 1.14 95 1007.2
20260506094005 7 352 1.6 6.4 0.13 3.58 1.14 95 1007.4
20260506093504 7 5 0.0 3.2 0.10 3.56 1.12 95 1007.6
20260506093006 7 5 0.0 3.2 0.10 3.56 1.12 95 1007.8
20260506092504 7 5 0.0 3.2 0.10 3.56 1.12 95 1007.9
20260506092004 7 5 0.0 3.2 0.08 3.53 1.09 95 1008.1
20260506091506 7 5 0.0 3.2 0.08 3.53 1.09 95 1008.0
20260506091005 7 5 0.0 3.2 0.10 3.53 1.09 94 1007.9
20260506090503 7 5 0.0 3.2 0.08 3.51 1.07 94 1007.9
20260506090004 7 5 1.6 3.2 0.10 3.51 1.07 94 1007.9
20260506085004 7 5 0.0 3.2 0.08 3.45 1.02 94 1007.9
20260506084506 7 5 0.0 3.2 0.10 3.45 1.02 94 1007.9
20260506084004 6 5 0.0 3.2 0.13 3.45 1.02 94 1007.9
20260506083503 7 5 0.0 4.8 0.18 3.45 1.02 94 1007.8
20260506083004 6 5 1.6 4.8 0.23 3.45 1.02 94 1007.7
20260506082508 6 9 1.6 4.8 0.25 3.45 1.02 94 1007.6
20260506082004 6 352 1.6 4.8 0.28 3.45 1.02 94 1007.7
20260506081505 6 5 0.0 3.2 0.30 3.45 1.02 94 1007.8
20260506081006 6 5 0.0 4.8 0.33 3.43 0.99 94 1007.8
20260506080505 6 348 3.2 6.4 0.36 3.43 0.99 94 1007.7
20260506073007 6 352 0.0 0.0 0.28 3.23 0.79 94 1007.9
20260506072504 6 352 0.0 4.8 0.28 3.20 0.76 94 1007.9
20260506072004 6 352 0.0 6.4 0.25 3.17 0.74 94 1007.6
20260506071507 6 352 3.2 6.4 0.25 3.15 0.71 94 1007.5
20260506071005 6 352 3.2 6.4 0.20 3.10 0.66 94 1007.5
20260506070506 7 5 3.2 8.0 0.20 3.07 0.64 93 1007.4
20260506062506 7 5 3.2 9.7 0.18 2.92 0.48 94 1007.3
20260506062008 7 360 1.6 6.4 0.20 2.92 0.48 94 1007.3
20260506061513 7 21 1.6 6.4 0.18 2.90 0.46 94 1007.3
20260506061009 7 352 3.2 6.4 0.20 2.90 0.46 94 1007.3
20260506060506 7 360 1.6 6.4 0.18 2.87 0.43 93 1007.4
20260506051003 8 34 1.6 3.2 0.20 2.67 0.25 94 1007.8
20260506050506 8 32 0.0 3.2 0.23 2.67 0.25 94 1007.8
20260506045005 8 22 0.0 3.2 0.23 2.64 0.20 94 1007.9
20260506044520 8 15 1.6 3.2 0.23 2.62 0.18 94 1008.0
20260506044005 8 38 1.6 3.2 0.25 2.62 0.18 94 1008.0
20260506043510 8 55 0.0 1.6 0.23 2.59 0.15 94 1008.0
20260506043017 9 11 0.0 3.2 0.23 2.57 0.13 94 1008.1
20260506042507 9 32 0.0 3.2 0.20 2.54 0.10 94 1008.1
20260506042008 9 36 1.6 4.8 0.23 2.54 0.10 94 1008.1
20260506041512 9 11 1.6 4.8 0.20 2.51 0.08 94 1008.2
20260506041007 9 13 0.0 4.8 0.20 2.49 0.05 94 1008.1
20260506040507 9 11 1.6 3.2 0.18 2.46 0.03 94 1008.1
20260506040016 9 347 0.0 3.2 0.15 2.44 0.00 94 1008.2
20260506035507 9 352 1.6 3.2 0.18 2.44 2.44 94 1008.2
20260506035009 9 360 0.0 4.8 0.15 2.41 2.41 94 1008.3
20260506034514 9 350 1.6 4.8 0.15 2.39 2.39 94 1008.4
20260506034007 9 5 1.6 4.8 0.13 2.36 2.36 94 1008.5
20260506033504 9 346 1.6 6.4 0.13 2.36 2.36 94 1008.5
20260506033014 9 352 1.6 6.4 0.13 2.34 2.34 94 1008.6
20260506032506 9 350 3.2 4.8 0.15 2.34 2.34 94 1008.6
20260506032007 9 5 1.6 4.8 0.15 2.31 2.31 94 1008.5
20260506031518 9 9 0.0 4.8 0.15 2.31 2.31 94 1008.6
20260506031008 9 68 1.6 4.8 0.13 2.29 2.29 94 1008.6
20260506030508 9 40 1.6 3.2 0.15 2.29 2.29 94 1008.4
20260506024513 9 11 3.2 6.4 0.28 2.24 2.24 94 1008.6
20260506024005 10 360 1.6 3.2 0.33 2.24 2.24 94 1008.9
20260506023509 10 9 0.0 3.2 0.41 2.24 2.24 94 1008.9
20260506023015 10 5 0.0 3.2 0.43 2.21 2.21 94 1009.1
20260506022508 10 9 0.0 3.2 0.46 2.18 2.18 94 1009.1
20260506022009 10 108 0.0 4.8 0.51 2.16 2.16 94 1009.1
20260506021518 10 352 1.6 4.8 0.56 2.16 2.16 94 1008.7
20260506021006 10 262 1.6 3.2 0.61 2.16 2.16 94 1009.1
20260506020508 10 34 0.0 3.2 0.66 2.13 2.13 94 1008.5
20260506020020 10 5 0.0 6.4 0.66 2.11 2.11 94 1008.5
20260506015508 10 5 1.6 11.3 0.71 2.08 2.08 93 1008.2
20260506015007 10 5 3.2 11.3 0.76 2.06 2.06 93 1008.1
20260506014008 10 348 3.2 8.0 0.76 1.91 1.91 93 1008.1
20260506013013 10 5 1.6 6.4 0.71 1.78 1.78 93 1008.2
20260506012508 10 360 1.6 6.4 0.69 1.73 1.73 93 1008.1
20260506012013 11 299 0.0 6.4 0.64 1.65 1.65 94 1008.1
20260506011517 11 40 1.6 6.4 0.61 1.60 1.60 93 1007.8
20260506011008 11 5 1.6 4.8 0.56 1.55 1.55 93 1007.8
20260506010510 11 5 1.6 4.8 0.51 1.47 1.47 93 1007.8
20260506010018 11 5 0.0 0.0 0.48 1.45 1.45 93 1007.7
20260506005507 11 32 0.0 0.0 0.43 1.37 1.37 93 1007.6
20260506005010 11 32 0.0 3.2 0.36 1.30 1.30 93 1007.6
20260506004519 11 19 0.0 3.2 0.25 1.19 1.19 93 1007.8
20260506004010 11 46 0.0 3.2 0.20 1.14 1.14 93 1007.7
20260506002012 12 299 0.0 1.6 0.13 1.02 1.02 92 1007.6
20260506001519 12 352 0.0 3.2 0.13 0.99 0.99 92 1007.4
20260506001009 12 352 0.0 3.2 0.15 0.99 0.99 92 1007.4
20260506000509 12 332 0.0 4.8 0.15 0.97 0.97 92 1007.5
20260506000022 12 332 0.0 4.8 0.18 0.97 0.97 91 1007.6
20260505235508 13 36 1.6 4.8 0.20 0.94 0.94 93 1007.4
20260505235007 13 23 0.0 0.0 0.25 0.94 0.94 93 1007.5
20260505234546 13 23 0.0 0.0 0.30 0.94 0.94 93 1007.3
20260505234008 13 23 0.0 0.0 0.46 0.94 0.94 93 1007.4
20260505233507 13 23 0.0 0.0 0.66 0.94 0.94 93 1007.5
20260505233021 13 23 0.0 0.0 0.81 0.94 0.94 93 1007.4
20260505232509 13 293 0.0 0.0 0.89 0.91 0.91 92 1007.7
20260505232009 13 294 0.0 0.0 0.86 0.89 0.89 92 1007.8
20260505231008 13 293 0.0 0.0 0.81 0.84 0.84 92 1007.8
20260505230508 13 293 0.0 0.0 0.79 0.81 0.81 92 1007.9
20260505230018 13 293 0.0 0.0 0.76 0.79 0.79 92 1007.8
20260505225510 13 316 0.0 0.0 0.71 0.74 0.74 91 1007.9
20260505225007 13 323 0.0 0.0 0.66 0.69 0.69 91 1007.9
20260505224507 14 360 0.0 0.0 0.61 0.64 0.64 91 1007.9
20260505224005 14 5 0.0 0.0 0.46 0.48 0.48 91 1007.9
20260505223504 14 291 0.0 0.0 0.25 0.28 0.28 90 1008.2
20260505223011 14 311 0.0 0.0 0.10 0.13 0.13 90 1007.7
20260505222503 15 352 0.0 0.0 0.00 0.03 0.03 89 1007.4
20260505222008 15 352 0.0 0.0 0.00 0.03 0.03 89 1007.3
20260505221514 15 352 0.0 0.0 0.00 0.03 0.03 89 1007.3
20260505221010 15 352 0.0 0.0 0.00 0.03 0.03 88 1007.3
20260505220505 15 352 0.0 0.0 0.00 0.03 0.03 88 1007.4
20260505220020 15 360 0.0 0.0 0.00 0.03 0.03 87 1007.2
20260505215508 15 305 0.0 0.0 0.00 0.03 0.03 87 1007.4
20260505215009 15 76 0.0 0.0 0.00 0.03 0.03 88 1007.5
20260505214524 15 76 0.0 0.0 0.00 0.03 0.03 88 1007.4
20260505214011 15 76 0.0 0.0 0.00 0.03 0.03 87 1007.5
20260505213507 15 315 0.0 0.0 0.00 0.03 0.03 88 1007.5
20260505213007 15 315 0.0 0.0 0.00 0.03 0.03 88 1007.5
20260505212504 15 302 0.0 0.0 0.00 0.03 0.03 88 1007.5
20260505212006 15 302 0.0 0.0 0.00 0.03 0.03 88 1007.6
20260505211510 15 302 0.0 0.0 0.00 0.03 0.03 88 1007.5
20260505211009 15 302 0.0 0.0 0.00 0.03 0.03 87 1007.5
20260505210510 15 302 0.0 0.0 0.03 0.03 0.03 87 1007.6
20260505210020 15 302 0.0 0.0 0.03 0.03 0.03 87 1007.6
20260505205509 15 302 0.0 0.0 0.03 0.03 0.03 87 1007.6
20260505205009 15 302 0.0 0.0 0.03 0.03 0.03 87 1007.8
20260505204527 15 302 0.0 0.0 0.03 0.03 0.03 87 1007.9
20260505204008 15 302 0.0 0.0 0.03 0.03 0.03 85 1007.9
20260505203510 15 302 0.0 0.0 0.03 0.03 0.03 85 1007.7
20260505203025 15 302 0.0 0.0 0.03 0.03 0.03 85 1007.6
20260505202512 16 302 0.0 0.0 0.03 0.03 0.03 84 1007.7
20260505202011 16 302 0.0 0.0 0.03 0.03 0.03 83 1007.7
20260505201510 16 304 0.0 0.0 0.03 0.03 0.03 82 1007.7
20260505201003 16 304 0.0 0.0 0.03 0.03 0.03 80 1007.6
20260505200506 17 293 0.0 0.0 0.00 0.00 0.00 76 1007.7
20260505200023 17 295 0.0 0.0 0.00 0.00 0.00 76 1007.7
20260505195502 17 295 0.0 0.0 0.00 0.00 0.00 76 1007.4
20260505195002 17 194 0.0 0.0 0.00 0.00 0.00 74 1007.3
20260505194504 17 194 0.0 0.0 0.00 0.00 0.00 73 1007.4
20260505194003 18 183 0.0 0.0 0.00 0.00 0.00 74 1007.5
20260505193503 18 173 0.0 0.0 0.00 0.00 0.00 71 1007.5
20260505193009 18 186 0.0 0.0 0.00 0.00 0.00 71 1007.6
20260505192505 18 186 0.0 0.0 0.00 0.00 0.00 72 1007.6
20260505192003 18 186 0.0 0.0 0.00 0.00 0.00 72 1007.6
20260505191508 18 189 0.0 0.0 0.00 0.00 0.00 71 1007.6
20260505191008 18 208 0.0 0.0 0.00 0.00 0.00 72 1007.6
20260505190504 18 190 0.0 0.0 0.00 0.00 0.00 71 1007.7
20260505190009 17 190 0.0 1.6 0.00 0.00 0.00 71 1007.7
20260505185507 18 190 0.0 4.8 0.00 0.00 0.00 71 1007.7
20260505185006 18 171 1.6 4.8 0.00 0.00 0.00 70 1007.8
20260505184523 17 195 0.0 0.0 0.00 0.00 0.00 71 1007.9
20260505184003 17 173 0.0 0.0 0.00 0.00 0.00 72 1007.9
20260505183503 17 184 0.0 0.0 0.00 0.00 0.00 74 1008.0
20260505183006 17 184 0.0 0.0 0.00 0.00 0.00 1008.1
20260505182505 17 184 0.0 0.0 0.00 0.00 0.00 72 1008.2
20260505182003 17 184 0.0 0.0 0.00 0.00 0.00 72 1008.3
20260505181504 17 184 0.0 0.0 0.00 0.00 0.00 72 1008.2
20260505181006 17 167 0.0 3.2 0.00 0.00 0.00 71 1008.1
20260505180503 17 250 0.0 3.2 0.00 0.00 0.00 71 1008.2
20260505180008 17 247 0.0 0.0 0.00 0.00 0.00 72 1008.2
20260505175506 17 247 0.0 0.0 0.00 0.00 0.00 71 1008.1
20260505175007 17 242 0.0 0.0 0.00 0.00 0.00 71 1008.0
20260505174513 17 257 0.0 3.2 0.00 0.00 0.00 71 1008.0
20260505174007 17 257 1.6 3.2 0.00 0.00 0.00 69 1008.0
20260505173506 17 268 0.0 0.0 0.00 0.00 0.00 69 1007.9
20260505173021 18 268 0.0 0.0 0.00 0.00 0.00 69 1007.9
20260505172502 18 262 0.0 0.0 0.00 0.00 0.00 68 1007.9
20260505172003 18 257 0.0 3.2 0.00 0.00 0.00 66 1008.0
20260505171505 18 275 0.0 3.2 0.00 0.00 0.00 65 1008.0
20260505171004 18 272 0.0 0.0 0.00 0.00 0.00 67 1007.8
20260505170504 19 280 0.0 4.8 0.00 0.00 0.00 64 1007.9
20260505170010 19 186 0.0 4.8 0.00 0.00 0.00 63 1007.8
20260505165503 19 213 1.6 4.8 0.00 0.00 0.00 62 1007.8
20260505165004 19 259 1.6 4.8 0.00 0.00 0.00 64 1007.8
20260505164509 19 267 1.6 3.2 0.00 0.00 0.00 62 1007.8
20260505164006 20 246 1.6 4.8 0.00 0.00 0.00 63 1007.7
20260505163508 20 236 1.6 4.8 0.00 0.00 0.00 61 1007.7
20260505163014 20 252 1.6 6.4 0.00 0.00 0.00 61 1007.8
20260505162507 20 138 1.6 9.7 0.00 0.00 0.00 60 1007.7
20260505162009 20 186 6.4 9.7 0.00 0.00 0.00 59 1007.7
20260505161527 20 162 3.2 6.4 0.00 0.00 0.00 60 1007.7
20260505161004 20 173 1.6 6.4 0.00 0.00 0.00 61 1007.7
20260505160504 20 195 1.6 11.3 0.00 0.00 0.00 61 1007.7